When you browse on this site, cookies collect data to enhance your experience and personalize the content and advertising you see.
Visit our Privacy Policy to learn more. By continuing to use the site, you agree to this use of cookies and data.
  • In Hungary
  • List of Countries
  • For 7 days
  • Water Temperature
  • Satellite Maps
  • Weather Map
  • News
  • Weather Widgets
  • user-avatar
    Login

    Hourly Weather Charleroi

    Today, 17 January, Thursday

    Time Temperature Precipitation Wind Pressure Humidity
    00:00 +3°C° 0 mm 6 mps 742 mmHg 90%
    01:00 +3°C° 0.4 mm 5 mps 742 mmHg 91%
    02:00 +3°C° 0.4 mm 5 mps 742 mmHg 92%
    03:00 +4°C° 0.4 mm 4 mps 742 mmHg 93%
    04:00 +4°C° 0 mm 4 mps 741 mmHg 94%
    05:00 +2°C° 0 mm 5 mps 741 mmHg 94%
    06:00 +1°C° 0 mm 4 mps 741 mmHg 95%
    07:00 +2°C° 0.1 mm 5 mps 741 mmHg 93%
    08:00 +2°C° 0.1 mm 6 mps 741 mmHg 90%
    09:00 +1°C° 0.1 mm 8 mps 741 mmHg 88%
    10:00 +3°C° 0.4 mm 7 mps 742 mmHg 85%
    11:00 +3°C° 0.4 mm 7 mps 742 mmHg 82%
    12:00 +3°C° 0.4 mm 7 mps 743 mmHg 79%
    13:00 +2°C° 0.3 mm 7 mps 743 mmHg 77%
    14:00 +2°C° 0.3 mm 7 mps 744 mmHg 76%
    15:00 +2°C° 0.3 mm 7 mps 745 mmHg 74%
    16:00 +1°C° 0.1 mm 6 mps 745 mmHg 76%
    17:00 -1°C° 0.1 mm 6 mps 746 mmHg 78%
    18:00 -1°C° 0.1 mm 6 mps 747 mmHg 80%
    19:00 0°C° 0 mm 5 mps 747 mmHg 81%
    20:00 -1°C° 0 mm 5 mps 748 mmHg 81%
    21:00 -1°C° 0 mm 4 mps 749 mmHg 82%
    22:00 -1°C° 0 mm 4 mps 749 mmHg 83%
    23:00 -1°C° 0 mm 3 mps 750 mmHg 84%

    Tomorrow, 18 January, Friday

    Time Temperature Precipitation Wind Pressure Humidity
    00:00 -1°C° 0 mm 3 mps 750 mmHg 85%
    01:00 -1°C° 0 mm 3 mps 751 mmHg 86%
    02:00 -1°C° 0 mm 2 mps 751 mmHg 86%
    03:00 -1°C° 0 mm 2 mps 751 mmHg 87%
    04:00 -1°C° 0 mm 2 mps 752 mmHg 86%
    05:00 +1°C° 0 mm 1 mps 752 mmHg 85%
    06:00 +1°C° 0 mm 1 mps 752 mmHg 85%
    07:00 +1°C° 0 mm 1 mps 752 mmHg 83%
    08:00 +2°C° 0 mm 1 mps 753 mmHg 82%
    09:00 +2°C° 0 mm 1 mps 753 mmHg 80%
    10:00 +3°C° 0 mm 1 mps 753 mmHg 75%
    11:00 +4°C° 0 mm 1 mps 753 mmHg 70%
    12:00 +5°C° 0 mm 1 mps 753 mmHg 66%
    13:00 +5°C° 0 mm 1 mps 753 mmHg 67%
    14:00 +5°C° 0 mm 1 mps 753 mmHg 68%
    15:00 +4°C° 0 mm 1 mps 752 mmHg 70%
    16:00 +4°C° 0 mm 1 mps 752 mmHg 72%
    17:00 +3°C° 0 mm 1 mps 753 mmHg 75%
    18:00 +1°C° 0 mm 2 mps 753 mmHg 77%
    19:00 -1°C° 0 mm 2 mps 753 mmHg 78%
    20:00 -1°C° 0 mm 2 mps 752 mmHg 79%
    21:00 -1°C° 0 mm 2 mps 752 mmHg 80%
    22:00 -1°C° 0 mm 2 mps 752 mmHg 79%
    23:00 -1°C° 0 mm 2 mps 752 mmHg 78%

    Day after tomorrow, 19 January, Saturday

    Time Temperature Precipitation Wind Pressure Humidity
    00:00 -1°C° 0 mm 3 mps 752 mmHg 77%
    01:00 -1°C° 0 mm 3 mps 752 mmHg 76%
    02:00 -2°C° 0 mm 3 mps 751 mmHg 76%
    03:00 -2°C° 0 mm 3 mps 751 mmHg 76%
    04:00 -2°C° 0 mm 3 mps 751 mmHg 76%
    05:00 -2°C° 0 mm 3 mps 750 mmHg 76%
    06:00 -2°C° 0 mm 3 mps 750 mmHg 77%
    07:00 -3°C° 0 mm 4 mps 750 mmHg 75%
    08:00 -3°C° 0 mm 4 mps 750 mmHg 73%
    09:00 -2°C° 0 mm 4 mps 750 mmHg 71%
    10:00 -1°C° 0 mm 4 mps 750 mmHg 66%
    11:00 0°C° 0 mm 4 mps 749 mmHg 61%
    12:00 +1°C° 0 mm 4 mps 749 mmHg 56%
    13:00 +1°C° 0 mm 4 mps 748 mmHg 58%
    14:00 +2°C° 0 mm 3 mps 748 mmHg 59%
    15:00 +2°C° 0 mm 3 mps 748 mmHg 61%
    16:00 +1°C° 0 mm 3 mps 748 mmHg 64%
    17:00 0°C° 0 mm 3 mps 748 mmHg 67%
    18:00 -1°C° 0 mm 3 mps 748 mmHg 71%
    19:00 -2°C° 0 mm 3 mps 748 mmHg 71%
    20:00 -2°C° 0 mm 3 mps 748 mmHg 71%
    21:00 -2°C° 0 mm 3 mps 748 mmHg 71%
    22:00 -2°C° 0 mm 3 mps 748 mmHg 72%
    23:00 -2°C° 0 mm 3 mps 748 mmHg 72%

    20 January, Sunday

    Time Temperature Precipitation Wind Pressure Humidity
    00:00 -2°C° 0 mm 2 mps 748 mmHg 73%
    01:00 -2°C° 0 mm 2 mps 748 mmHg 72%
    02:00 -3°C° 0 mm 2 mps 748 mmHg 72%
    03:00 -3°C° 0 mm 2 mps 748 mmHg 72%
    04:00 -3°C° 0 mm 2 mps 749 mmHg 71%
    05:00 -3°C° 0 mm 2 mps 749 mmHg 71%
    06:00 -3°C° 0 mm 2 mps 749 mmHg 70%
    07:00 -3°C° 0 mm 2 mps 749 mmHg 68%
    08:00 0°C° 0 mm 1 mps 750 mmHg 66%
    09:00 0°C° 0 mm 1 mps 750 mmHg 64%
    10:00 +1°C° 0 mm 1 mps 751 mmHg 59%
    11:00 +3°C° 0 mm 1 mps 751 mmHg 54%
    12:00 +3°C° 0 mm 0 mps 751 mmHg 50%
    13:00 +3°C° 0 mm 1 mps 751 mmHg 53%
    14:00 +3°C° 0 mm 1 mps 751 mmHg 56%
    15:00 +3°C° 0 mm 1 mps 751 mmHg 58%
    16:00 +2°C° 0 mm 1 mps 752 mmHg 61%
    17:00 +1°C° 0 mm 1 mps 752 mmHg 64%
    18:00 0°C° 0 mm 1 mps 753 mmHg 67%
    19:00 -2°C° 0 mm 0 mps 753 mmHg 67%
    20:00 -2°C° 0 mm 0 mps 754 mmHg 66%
    21:00 -2°C° 0 mm 0 mps 754 mmHg 66%
    22:00 -2°C° 0 mm 0 mps 755 mmHg 66%
    23:00 -2°C° 0 mm 0 mps 755 mmHg 66%

    21 January, Monday

    Time Temperature Precipitation Wind Pressure Humidity
    00:00 -1°C° 0 mm 1 mps 755 mmHg 66%
    01:00 -1°C° 0 mm 1 mps 755 mmHg 66%
    02:00 -1°C° 0 mm 1 mps 755 mmHg 67%
    03:00 -1°C° 0 mm 1 mps 755 mmHg 68%
    04:00 -1°C° 0 mm 1 mps 755 mmHg 68%
    05:00 -3°C° 0 mm 2 mps 755 mmHg 68%
    06:00 -2°C° 0 mm 2 mps 755 mmHg 69%
    07:00 -2°C° 0.1 mm 2 mps 755 mmHg 75%
    08:00 -1°C° 0.1 mm 2 mps 755 mmHg 81%
    09:00 +1°C° 0.1 mm 2 mps 756 mmHg 88%
    10:00 +1°C° 0 mm 3 mps 756 mmHg 80%
    11:00 +2°C° 0 mm 3 mps 755 mmHg 72%
    12:00 +4°C° 0 mm 4 mps 755 mmHg 64%
    13:00 +3°C° 0 mm 3 mps 755 mmHg 68%
    14:00 +3°C° 0 mm 3 mps 755 mmHg 71%
    15:00 +2°C° 0 mm 3 mps 754 mmHg 75%
    16:00 +2°C° 0 mm 2 mps 754 mmHg 80%
    17:00 +1°C° 0 mm 2 mps 754 mmHg 85%
    18:00 -1°C° 0 mm 2 mps 754 mmHg 90%
    19:00 -1°C° 0 mm 2 mps 754 mmHg 91%
    20:00 -1°C° 0 mm 2 mps 753 mmHg 92%
    21:00 -2°C° 0 mm 2 mps 753 mmHg 93%
    22:00 -2°C° 0 mm 2 mps 752 mmHg 93%
    23:00 -2°C° 0 mm 3 mps 751 mmHg 93%

    22 January, Tuesday

    Time Temperature Precipitation Wind Pressure Humidity
    00:00 -2°C° 0 mm 3 mps 751 mmHg 94%
    01:00 -2°C° 0 mm 3 mps 750 mmHg 93%
    02:00 -3°C° 0 mm 4 mps 749 mmHg 93%
    03:00 -3°C° 0 mm 4 mps 748 mmHg 92%
    04:00 -2°C° 0 mm 4 mps 747 mmHg 90%
    05:00 -2°C° 0 mm 5 mps 745 mmHg 88%
    06:00 -1°C° 0 mm 5 mps 744 mmHg 86%
    07:00 -1°C° 0 mm 5 mps 743 mmHg 84%
    08:00 -2°C° 0 mm 6 mps 743 mmHg 82%
    09:00 -1°C° 0 mm 6 mps 742 mmHg 79%
    10:00 -1°C° 0.1 mm 7 mps 741 mmHg 76%
    11:00 0°C° 0.1 mm 7 mps 740 mmHg 73%
    12:00 0°C° 0.1 mm 7 mps 740 mmHg 70%
    13:00 +1°C° 0.2 mm 6 mps 739 mmHg 71%
    14:00 +1°C° 0.2 mm 5 mps 739 mmHg 73%
    15:00 0°C° 0.2 mm 4 mps 738 mmHg 74%
    16:00 0°C° 0.3 mm 4 mps 738 mmHg 75%
    17:00 -1°C° 0.3 mm 4 mps 738 mmHg 77%
    18:00 -1°C° 0.3 mm 4 mps 738 mmHg 78%
    19:00 -1°C° 0.2 mm 4 mps 738 mmHg 79%
    20:00 -2°C° 0.2 mm 4 mps 738 mmHg 79%
    21:00 -2°C° 0.2 mm 4 mps 738 mmHg 80%
    22:00 -2°C° 0 mm 4 mps 738 mmHg 80%
    23:00 -3°C° 0 mm 4 mps 738 mmHg 79%
    Show more